Orbital Elements at Epoch 2459200.5 (2020-Dec-17.0) TDB
Reference: JPL 16 (heliocentric ecliptic J2000)
Element | Value | Uncertainty (1-sigma) | Units |
e | .1723362998767108 | 3.0339e-08 | |
a | 2.368688942854685 | 9.3592e-09 | au |
q | 1.960477854884231 | 7.4097e-08 | au |
i | 2.057687189714555 | 4.7145e-06 | deg |
node | 139.8408251256211 | 0.00012089 | deg |
peri | 134.9396349914943 | 0.00012227 | deg |
M | 15.40052797169237 | 1.6826e-05 | deg |
tp | 2459143.536904065020 (2020-Oct-21.03690406) | 6.2249e-05 | TDB |
period | 1331.559189028203 3.65 | 7.8919e-06 2.161e-08 | d yr |
n | .2703597428986502 | 1.6024e-09 | deg/d |
Q | 2.776900030825139 | 1.0972e-08 | au |
|
| | Orbit Determination Parameters
Additional Information
|